• En España
  • Lista de países
  • Para 7 días
  • Temperatura del agua
  • Mapa Satelital
  • El tiempo en el mapa
  • Informadores
  • user-avatar
    Iniciar sesión

    Tiempo cada hora Debki

    Hoy, 23 Enero, Martes

    Tiempo Temperatura Precipitaciones Viento Presión Humedad
    00:00 -10°C° 0 mm 5 mps 764 mmHg 92%
    01:00 -10°C° 0 mm 5 mps 764 mmHg 93%
    02:00 -9°C° 0 mm 4 mps 764 mmHg 93%
    03:00 -9°C° 0 mm 4 mps 765 mmHg 93%
    04:00 -9°C° 0 mm 4 mps 765 mmHg 92%
    05:00 -9°C° 0 mm 4 mps 765 mmHg 92%
    06:00 -9°C° 0 mm 4 mps 766 mmHg 92%
    07:00 -10°C° 0 mm 4 mps 766 mmHg 91%
    08:00 -10°C° 0 mm 5 mps 766 mmHg 89%
    09:00 -10°C° 0 mm 5 mps 767 mmHg 88%
    10:00 -8°C° 0 mm 5 mps 767 mmHg 86%
    11:00 -7°C° 0 mm 5 mps 768 mmHg 85%
    12:00 -7°C° 0 mm 5 mps 768 mmHg 83%
    13:00 -6°C° 0 mm 5 mps 768 mmHg 82%
    14:00 -6°C° 0 mm 6 mps 768 mmHg 83%
    15:00 -8°C° 0 mm 6 mps 768 mmHg 85%
    16:00 -8°C° 0 mm 6 mps 768 mmHg 87%
    17:00 -8°C° 0 mm 7 mps 768 mmHg 88%
    18:00 -8°C° 0 mm 7 mps 768 mmHg 88%
    19:00 -9°C° 0 mm 7 mps 767 mmHg 89%
    20:00 -8°C° 0 mm 8 mps 767 mmHg 89%
    21:00 -8°C° 0 mm 8 mps 767 mmHg 89%
    22:00 -9°C° 0 mm 9 mps 766 mmHg 89%
    23:00 -9°C° 0 mm 9 mps 766 mmHg 89%

    Mañana, 24 Enero, Miércoles

    Tiempo Temperatura Precipitaciones Viento Presión Humedad
    00:00 -8°C° 0 mm 9 mps 766 mmHg 89%
    01:00 -8°C° 0 mm 9 mps 765 mmHg 90%
    02:00 -6°C° 0,1 mm 9 mps 764 mmHg 90%
    03:00 -5°C° 0,1 mm 10 mps 763 mmHg 90%
    04:00 -4°C° 0,1 mm 10 mps 763 mmHg 90%
    05:00 -3°C° 0,2 mm 10 mps 762 mmHg 90%
    06:00 -2°C° 0,2 mm 11 mps 761 mmHg 90%
    07:00 -1°C° 0,2 mm 11 mps 761 mmHg 90%
    08:00 -1°C° 0,3 mm 11 mps 761 mmHg 91%
    09:00 0°C° 0,3 mm 10 mps 761 mmHg 92%
    10:00 0°C° 0,3 mm 10 mps 761 mmHg 93%
    11:00 +1°C° 0 mm 9 mps 761 mmHg 94%
    12:00 +1°C° 0 mm 8 mps 761 mmHg 95%
    13:00 +1°C° 0 mm 8 mps 761 mmHg 96%
    14:00 +1°C° 0 mm 8 mps 761 mmHg 96%
    15:00 +2°C° 0 mm 8 mps 761 mmHg 96%
    16:00 +2°C° 0 mm 8 mps 761 mmHg 96%
    17:00 +2°C° 0 mm 8 mps 760 mmHg 96%
    18:00 +2°C° 0 mm 8 mps 760 mmHg 95%
    19:00 +4°C° 0 mm 8 mps 760 mmHg 94%
    20:00 +3°C° 0 mm 9 mps 759 mmHg 93%
    21:00 +3°C° 0 mm 9 mps 759 mmHg 93%
    22:00 +3°C° 0 mm 10 mps 759 mmHg 92%
    23:00 +3°C° 0 mm 10 mps 758 mmHg 92%

    Pasado mañana, 25 Enero, Jueves

    Tiempo Temperatura Precipitaciones Viento Presión Humedad
    00:00 +3°C° 0 mm 10 mps 758 mmHg 92%
    01:00 +3°C° 0 mm 10 mps 757 mmHg 92%
    02:00 +3°C° 0 mm 10 mps 757 mmHg 91%
    03:00 +3°C° 0 mm 10 mps 757 mmHg 91%
    04:00 +3°C° 0 mm 10 mps 757 mmHg 90%
    05:00 +3°C° 0,1 mm 10 mps 757 mmHg 89%
    06:00 +2°C° 0,1 mm 9 mps 757 mmHg 89%
    07:00 +2°C° 0,1 mm 9 mps 757 mmHg 89%
    08:00 +2°C° 0,2 mm 9 mps 757 mmHg 89%
    09:00 +2°C° 0,2 mm 8 mps 757 mmHg 89%
    10:00 +2°C° 0,2 mm 8 mps 757 mmHg 89%
    11:00 +3°C° 0,1 mm 7 mps 757 mmHg 89%
    12:00 +3°C° 0,1 mm 7 mps 757 mmHg 90%
    13:00 +3°C° 0,1 mm 6 mps 757 mmHg 90%
    14:00 +3°C° 0,5 mm 6 mps 757 mmHg 91%
    15:00 +3°C° 0,5 mm 6 mps 757 mmHg 92%
    16:00 +3°C° 0,5 mm 5 mps 757 mmHg 92%
    17:00 +2°C° 0,2 mm 5 mps 757 mmHg 93%
    18:00 +2°C° 0,2 mm 5 mps 758 mmHg 94%
    19:00 +3°C° 0,2 mm 4 mps 758 mmHg 95%
    20:00 +3°C° 0,1 mm 4 mps 758 mmHg 95%
    21:00 +3°C° 0,1 mm 4 mps 758 mmHg 96%
    22:00 +3°C° 0,1 mm 3 mps 759 mmHg 96%
    23:00 +3°C° 0,2 mm 3 mps 759 mmHg 96%

    26 Enero, Viernes

    Tiempo Temperatura Precipitaciones Viento Presión Humedad
    00:00 +2°C° 0,2 mm 3 mps 759 mmHg 97%
    01:00 +3°C° 0,2 mm 2 mps 759 mmHg 97%
    02:00 +3°C° 0,2 mm 2 mps 759 mmHg 97%
    03:00 +3°C° 0,2 mm 2 mps 759 mmHg 96%
    04:00 +3°C° 0,2 mm 2 mps 759 mmHg 96%
    05:00 +3°C° 0,1 mm 2 mps 759 mmHg 96%
    06:00 +3°C° 0,1 mm 2 mps 759 mmHg 96%
    07:00 +2°C° 0,1 mm 2 mps 759 mmHg 96%
    08:00 +3°C° 0 mm 2 mps 760 mmHg 96%
    09:00 +4°C° 0 mm 1 mps 760 mmHg 95%
    10:00 +4°C° 0 mm 1 mps 760 mmHg 95%
    11:00 +5°C° 0 mm 1 mps 760 mmHg 94%
    12:00 +4°C° 0 mm 2 mps 760 mmHg 93%
    13:00 +5°C° 0 mm 2 mps 760 mmHg 92%
    14:00 +4°C° 0 mm 2 mps 760 mmHg 93%
    15:00 +4°C° 0 mm 2 mps 761 mmHg 93%
    16:00 +4°C° 0 mm 2 mps 761 mmHg 94%
    17:00 +3°C° 0 mm 2 mps 761 mmHg 94%
    18:00 +3°C° 0 mm 2 mps 761 mmHg 94%
    19:00 +3°C° 0 mm 2 mps 761 mmHg 93%
    20:00 +2°C° 0 mm 3 mps 762 mmHg 93%
    21:00 +2°C° 0 mm 3 mps 762 mmHg 93%
    22:00 +2°C° 0 mm 3 mps 762 mmHg 93%
    23:00 +1°C° 0 mm 4 mps 762 mmHg 93%

    27 Enero, Sábado

    Tiempo Temperatura Precipitaciones Viento Presión Humedad
    00:00 +1°C° 0 mm 4 mps 763 mmHg 93%
    01:00 0°C° 0 mm 4 mps 763 mmHg 93%
    02:00 0°C° 0 mm 4 mps 763 mmHg 93%
    03:00 0°C° 0 mm 4 mps 763 mmHg 94%
    04:00 0°C° 0 mm 4 mps 763 mmHg 94%
    05:00 0°C° 0 mm 4 mps 763 mmHg 93%
    06:00 0°C° 0 mm 5 mps 764 mmHg 93%
    07:00 -1°C° 0 mm 5 mps 764 mmHg 92%
    08:00 -1°C° 0 mm 6 mps 764 mmHg 91%
    09:00 -1°C° 0 mm 6 mps 764 mmHg 90%
    10:00 0°C° 0 mm 7 mps 764 mmHg 89%
    11:00 0°C° 0 mm 7 mps 765 mmHg 88%
    12:00 0°C° 0 mm 7 mps 765 mmHg 88%
    13:00 +1°C° 0 mm 8 mps 765 mmHg 87%
    14:00 0°C° 0 mm 8 mps 765 mmHg 86%
    15:00 0°C° 0 mm 8 mps 766 mmHg 84%
    16:00 0°C° 0 mm 8 mps 766 mmHg 82%
    17:00 -1°C° 0 mm 8 mps 766 mmHg 84%
    18:00 -1°C° 0 mm 8 mps 766 mmHg 86%
    19:00 -1°C° 0 mm 8 mps 767 mmHg 88%
    20:00 -2°C° 0 mm 8 mps 767 mmHg 89%
    21:00 -2°C° 0 mm 8 mps 767 mmHg 89%
    22:00 -2°C° 0 mm 8 mps 767 mmHg 89%
    23:00 -2°C° 0 mm 8 mps 766 mmHg 89%

    28 Enero, Domingo

    Tiempo Temperatura Precipitaciones Viento Presión Humedad
    00:00 -2°C° 0 mm 8 mps 766 mmHg 88%
    01:00 -2°C° 0 mm 8 mps 766 mmHg 87%
    02:00 -2°C° 0 mm 8 mps 765 mmHg 84%
    03:00 -1°C° 0 mm 9 mps 764 mmHg 81%
    04:00 -1°C° 0 mm 9 mps 763 mmHg 78%
    05:00 -2°C° 1 mm 10 mps 761 mmHg 79%
    06:00 -2°C° 1 mm 11 mps 760 mmHg 81%
    07:00 -2°C° 1 mm 12 mps 758 mmHg 83%
    08:00 -1°C° 0,7 mm 12 mps 757 mmHg 85%
    09:00 0°C° 0,7 mm 12 mps 756 mmHg 87%
    10:00 0°C° 0,7 mm 12 mps 755 mmHg 88%
    11:00 +2°C° 0,1 mm 12 mps 755 mmHg 87%
    12:00 +2°C° 0,1 mm 12 mps 755 mmHg 87%
    13:00 +3°C° 0,1 mm 12 mps 755 mmHg 86%
    14:00 +3°C° 0,1 mm 12 mps 755 mmHg 86%
    15:00 +2°C° 0,1 mm 12 mps 755 mmHg 86%
    16:00 +1°C° 0,1 mm 13 mps 755 mmHg 85%
    17:00 +1°C° 0,1 mm 13 mps 755 mmHg 84%
    18:00 +1°C° 0,1 mm 13 mps 756 mmHg 83%
    19:00 +1°C° 0,1 mm 14 mps 756 mmHg 82%
    20:00 +1°C° 0,1 mm 13 mps 756 mmHg 83%
    21:00 +1°C° 0,1 mm 13 mps 757 mmHg 84%
    22:00 +2°C° 0,1 mm 12 mps 758 mmHg 84%
    23:00 +2°C° 0 mm 11 mps 758 mmHg 85%
    Mostrar más